Hourly Data Report for June 13, 2013

TORONTO INTL A
ONTARIO

43°40'36.000" N
79°37'50.000" W
173.40 m
6158731
71624
YYZ

Download Data

Hourly Data (June 2013)
Hourly Data Report for June 13, 2013
TIME
LST
Temp Definition
°C
Dew Point Definition
°C
Rel Hum Definition
%
Precip. Amount Definition
mm

Wind Dir Definition
10's deg

Wind Spd Definition
km/h
Visibility Definition
km
Stn Press Definition
kPa
Hmdx Definition


Wind Chill Definition


Weather Definition


00:00 17.0 9.3 60   6 6 24.1 98.63     LegendNANA
01:00 16.9 9.9 63   6 6 24.1 98.58     Mostly Cloudy
02:00 15.9 11.1 73   3 8 24.1 98.48     LegendNANA
03:00 16.2 11.4 73   4 13 24.1 98.31     LegendNANA
04:00 16.1 11.1 72   5 12 24.1 98.22     Cloudy
05:00 15.5 12.7 83   5 11 16.1 98.23     Rain Showers
06:00 15.5 13.4 87   1 19 12.9 98.22     Rain Showers
07:00 15.1 13.8 92   36 23 12.9 98.23     Rain Showers
08:00 15.4 13.8 90   1 18 16.1 98.21     Rain Showers
09:00 15.7 13.7 88   36 22 16.1 98.26     Rain Showers
10:00 17.2 14.0 81   1 21 24.1 98.26     Mostly Cloudy
11:00 17.9 14.1 78   1 19 24.1 98.31     LegendNANA
12:00 20.6 14.8 69   4 20 24.1 98.35     LegendNANA
13:00 21.9 13.4 58   2 15 24.1 98.40 25   Mostly Cloudy
14:00 21.9 12.3 54   13 7 24.1 98.45     LegendNANA
15:00 18.6 13.9 74   15 13 24.1 98.53     LegendNANA
16:00 16.6 14.8 89   24 7 9.7 98.64     Moderate Rain Showers
17:00 17.1 14.8 86   14 15 24.1 98.69     LegendNANA
18:00 17.1 14.8 86   25 7 24.1 98.71     LegendNANA
19:00 16.2 13.5 84   21 7 24.1 98.79     Mostly Cloudy
20:00 16.4 14.3 87   24 8 24.1 98.83     LegendNANA
21:00 16.1 14.1 88   14 8 24.1 98.87     LegendNANA
22:00 15.2 14.1 93   15 4 24.1 98.90     Mostly Cloudy
23:00 15.9 14.3 90   33 19 24.1 98.90     LegendNANA

Notes on Data Quality.

Legend

  • E = Estimated
  • M = Missing
  • NA = Not Available*
  • [empty] = Indicates an unobserved value
Date modified: